Regional Weather Roundup
Issued by NWS

Home | Current Version | Previous Version | Text Only | Print | Product List | Glossary Off
Versions: 1 2 3 4 5 6 7 8 9 10 11 12 13 14 15 16 17 18 19 20 21 22 23 24 25 26 27 28 29 30 31 32 33 34 35 36 37 38 39 40 41 42 43 44 45 46 47 48 49 50

474
ASUS44 KJAN 211603
RWRMS

MISSISSIPPI HOURLY WEATHER ROUNDUP
NATIONAL WEATHER SERVICE JACKSON MS
1100 AM CDT TUE OCT 21 2014

NOTE: "FAIR: INDICATES FEW OR NO CLOUDS BELOW 12,000 FEET WITH NO
SIGNIFICANT WEATHER AND/OR OBSTRUCTIONS TO VISIBILITY.

MSZ001>002-007>008-010>013-018>021-025>028-034>036-211700-
NORTHWEST MISSISSIPPI

CITY           SKY/WX    TMP DP  RH WIND       PRES   REMARKS
CLARKSDALE     FAIR      68  61  77 CALM      30.11S
CLEVELAND      FAIR      69  62  77 CALM      30.10S
GREENWOOD      SUNNY     70  57  63 CALM      30.10F
GREENVILLE     SUNNY     72  59  63 NW3       30.10S
GRENADA          N/A    N/A N/A N/A MISG        N/A
OXFORD         FAIR      68  55  64 NE3       30.11S
TUNICA         SUNNY     68  55  64 CALM      30.11S
$$

MSZ003>006-009-014>017-022>024-029>033-037>039-211700-
NORTHEAST MISSISSIPPI

CITY           SKY/WX    TMP DP  RH WIND       PRES   REMARKS
COLUMBUS AFB   SUNNY     69  56  65 CALM      30.09S
CORINTH        FAIR      68  52  56 CALM      30.09S
GOLDN TRIANGLE SUNNY     72  55  56 N3        30.09F
STARKVILLE     FAIR      70  55  60 CALM      30.09S
TUPELO         SUNNY     67  56  67 NE3       30.08F
$$

MSZ040-058-211700-
CENTRAL MISSISSIPPI

CITY           SKY/WX    TMP DP  RH WIND       PRES   REMARKS
JACKSON INTL   SUNNY     72  53  51 VRB5      30.10S
JACKSON HAWKNS   N/A    N/A N/A N/A MISG      30.11F
MERIDIAN KEY   NOT AVBL
MERIDIAN NAS   SUNNY     71  52  50 NW6       30.09F
RAYMOND        FAIR      68  64  88 MISG      30.11F
VICKSBURG      SUNNY     72  56  57 NE3       30.12S
$$

MSZ059>079-211700-
SOUTH MISSISSIPPI

CITY           SKY/WX    TMP DP  RH WIND       PRES   REMARKS
BROOKHAVEN     FAIR      72  54  53 NE5       30.12S
COLUMBIA         N/A    N/A N/A N/A MISG        N/A
HATTIESBURG    SUNNY     73  54  51 VRB5      30.09F
MCCOMB         SUNNY     72  50  45 CALM      30.09F
NATCHEZ        SUNNY     70  52  52 E8        30.12F
PINE BELT      SUNNY     72  54  53 N6        30.10F
$$

MSZ080>082-211700-
COASTAL MISSISSIPPI

CITY           SKY/WX    TMP DP  RH WIND       PRES   REMARKS
BAY ST LOUIS   SUNNY     73  48  40 NE9       30.07
BILOXI         SUNNY     73  53  49 NE8       30.06S
PASCAGOULA     SUNNY     74  53  48 N6        30.06F
GULFPORT       SUNNY     74  52  46 N8        30.05F
$$



USA.gov is the U.S. government's official web portal to all federal, state and local government web resources and services.